Regional Weather Roundup
Issued by NWS

Home | Current Version | Previous Version | Graphics & Text | Print | Product List | Glossary On
Versions: 1 2 3 4 5 6 7 8 9 10 11 12 13 14 15 16 17 18 19 20 21 22 23 24 25 26 27 28 29 30 31 32 33 34 35 36 37 38 39 40 41 42 43 44 45 46 47 48 49 50
000
ASUS43 KLOT 271208
RWRIL

ILLINOIS REGIONAL WEATHER ROUNDUP
NATIONAL WEATHER SERVICE CHICAGO/ROMEOVILLE IL
700 AM CDT THU APR 27 2017

NOTE: "FAIR" INDICATES FEW OR NO CLOUDS BELOW 12,000 FEET WITH NO
SIGNIFICANT WEATHER AND/OR OBSTRUCTIONS TO VISIBILITY.

* THESE STATIONS ARE NOT UNDER NWS QUALITY CONTROL. THEY ALSO MAY NOT
  REPORT WEATHER SUCH AS PRECIPITATION OR FOG.

ILZ001-002-007-009-015-016-024-271300-
NORTHWEST ILLINOIS

CITY           SKY/WX    TMP DP  RH WIND       PRES   REMARKS
MOLINE         LGT RAIN  39  35  86 W17       29.53R WCI  30
6HR MIN TEMP:  38; 6HR MAX TEMP:  45; 6HR PCP:  0.49;

STERLING*      CLOUDY    41  40  96 W17       29.46R
SAVANNA*       LGT RAIN  40  38  93 W15       29.46R
$$

ILZ003-004-008-010-011-017-018-271300-
NORTH CENTRAL ILLINOIS

CITY           SKY/WX    TMP DP  RH WIND       PRES   REMARKS
ROCKFORD       LGT RAIN  44  40  85 NW15      29.39R
6HR MIN TEMP:  44; 6HR MAX TEMP:  51; 6HR PCP:  0.58;

FREEPORT*      RAIN      40  38  95 W13G21    29.42R
ROCHELLE*      CLOUDY    42  40  95 W17       29.41R
DE KALB*       CLOUDY    43  42  95 W21G28    29.38R FOG
PERU*          DRIZZLE   41  39  92 W23       29.48R
$$

ILZ005-006-012>014-019>023-271300-
NORTHEAST ILLINOIS

CITY           SKY/WX    TMP DP  RH WIND       PRES   REMARKS
CHICAGO-OHARE  LGT RAIN  52  50  93 W17G24    29.31R FOG
6HR MIN TEMP:  52; 6HR MAX TEMP:  62; 6HR PCP:  0.14;

CHICAGO-MIDWAY LGT RAIN  53  51  93 SW18G29   29.33R FOG
6HR MIN TEMP:  53; 6HR MAX TEMP:  62; 6HR PCP:  0.11;

AURORA         CLOUDY    46  44  93 W21G29    29.39R
6HR MIN TEMP:  46; 6HR MAX TEMP:  60; 6HR PCP:  0.38;

LANSING*       LGT RAIN  56  54  92 W29G45    29.36R
JOLIET*        DRIZZLE   47  46  97 W12G20    29.41R
WAUKEGAN       LGT RAIN  52  51  97 NW9       29.26F
6HR MIN TEMP:  52; 6HR MAX TEMP:  58; 6HR PCP:  0.19;

DUPAGE AIRPORT LGT RAIN  47  47 100 W15       29.35R FOG
6HR MIN TEMP:  47; 6HR MAX TEMP:  60; 6HR PCP:  0.28;

KANKAKEE*      CLOUDY    48  47  96 W18G28    29.46R
WHEELING       LGT RAIN  53  52  96 W13G20    29.31R FOG
6HR MIN TEMP:  54; 6HR MAX TEMP:  61; 6HR PCP:  0.16;

MORRIS*        CLOUDY    45  42  91 W16G26    29.42R
ROMEOVILLE*    DRIZZLE   46  46 100 W21G26    29.40R
NORTHERLY ISL    N/A     59  54  83 S17         N/A
$$

LMZ740>746-271300-
SOUTHERN LAKE MICHIGAN

STATION/POSITION SKY/WX   TEMP    WIND        PRES    VSBY  WAVE
                          AIR SEA DIR/SP/G                  HT/PER
                          (F)     (DEG/KT/KT) (MB)    (MI)  (FT/S)
SOUTHERN BUOY              47 42  110/ 14/ 16  992.4          1/ 3
HARRISON CRIB              58     180/ 26/ 28   N/A
BURNHAM HARBOR             56     210/ 24       N/A
CALUMET HARBOR             60     170/ 17/ 22  991.8F
BURNS HARBOR               60     180/ 19/ 31  993.6F
MICHIGAN CITY              60     160/ 22/ 27   N/A
MICHIGAN CITY 6N           59 49                N/A           3/ 2
ST. JOSEPH                 59 49  190/ 19/ 29  993.8          2/ 2
$$

ILZ025>027-034>036-040-047-049-050-058-095>099-271300-
WEST-CENTRAL ILLINOIS

CITY           SKY/WX    TMP DP  RH WIND       PRES   REMARKS
QUINCY         CLOUDY    42  39  89 W14       29.61R
GALESBURG*     DRIZZLE   38  37  93 W20G25    29.54R WCI  28
MACOMB*        LGT RAIN  40  39  95 W17       29.59R
JACKSONVILLE*  CLOUDY    43  40  89 W10       29.60R
PITTSFIELD*    CLOUDY    44  41  90 W14G21    29.62R
$$

ILZ028>032-037-038-041>044-048-051>054-059>061-271300-
CENTRAL ILLINOIS

CITY           SKY/WX    TMP DP  RH WIND       PRES   REMARKS
PONTIAC        CLOUDY    45  44  96 W22       29.50R
BLOOMINGTON    CLOUDY    43  40  89 W15G24    29.54
DECATUR        CLOUDY    46  44  93 W14       29.58R
PEORIA         CLOUDY    42  39  89 W17G25    29.55R
6HR MIN TEMP:  42; 6HR MAX TEMP:  48; 6HR PCP:  0.44;

LACON*         DRIZZLE   42  40  95 W14G23    29.50R
LINCOLN*       CLOUDY    45  42  90 W7        29.57R
SPRINGFIELD    CLOUDY    45  42  89 W14       29.60R
6HR MIN TEMP:  45; 6HR MAX TEMP:  61; 6HR PCP:  0.39;

TAYLORVILLE    CLOUDY    44  40  88 W12G20    29.61R
6HR MIN TEMP:  44; 6HR MAX TEMP:  58; 6HR PCP:  0.31;

$$

ILZ033-039-045-046-055>057-062-063-271300-
EAST-CENTRAL ILLINOIS

CITY           SKY/WX    TMP DP  RH WIND       PRES   REMARKS
CHAMPAIGN      CLOUDY    46  41  82 W20       29.56R
RANTOUL*       CLOUDY    47  44  88 W16G26    29.55R
MATTOON        CLOUDY    46  44  93 W10G22    29.58R
PARIS*         CLOUDY    48  46  93 W18       29.58R
$$

ILZ079-100>102-271300-
SOUTHWEST ILLINOIS

CITY           SKY/WX    TMP DP  RH WIND       PRES   REMARKS
ALTON          CLOUDY    46  41  81 W16G22    29.64R
BELLEVILLE     CLOUDY    48  47  99 W6        29.64R
CAHOKIA*       CLOUDY    48  43  82 W8        29.65R
SPARTA*        CLOUDY    46  45  93 W8        29.68R
$$

ILZ064>066-069>071-074>076-080>082-084>086-088>090-092>094-271300-
SOUTH-CENTRAL ILLINOIS

CITY           SKY/WX    TMP DP  RH WIND       PRES   REMARKS
CARBONDALE     CLOUDY    49  46  90 W9        29.68R
6HR MIN TEMP:  48; 6HR MAX TEMP:  59; 6HR PCP:  0.12;

CAIRO*         CLOUDY    49  46  87 W10G17    29.71R
EFFINGHAM*     CLOUDY    48  46  94 SW12G21   29.63R
MARION         CLOUDY    50  50 100 W9        29.69R FOG
MT. VERNON     LGT RAIN  48  48 100 SW8       29.65R FOG
CENTRALIA*     CLOUDY    50  47  90 W9        29.64R
SALEM*         LGT RAIN  50  46  88 W9        29.63R
METROPOLIS*    CLOUDY    51  46  86 W6        29.70R
$$

ILZ067-068-072-073-078-083-087-091-271300-
SOUTHEAST ILLINOIS

CITY           SKY/WX    TMP DP  RH WIND       PRES   REMARKS
LAWRENCEVILLE  CLOUDY    51  48  89 W15       29.61R
FLORA*         CLOUDY    51  47  86 W15G21    29.63R
FAIRFIELD*     CLOUDY    50  47  87 W5        29.63R
HARRISBURG*    CLOUDY    50  47  90 W10       29.66R
ROBINSON*      CLOUDY    50  47  92 W14       29.61R
CARMI*         CLOUDY    51  47  88 W10       29.64R
$$

ABBREVIATIONS USED IN REMARKS
   TC - TEMPERATURE IN CELSIUS
  WCI - WIND CHILL INDEX
   HX - HEAT INDEX
  VSB - VISIBILITY
$$





USA.gov is the U.S. government's official web portal to all federal, state and local government web resources and services.